This is the latest recevied weather packets stored in our database for station/object K2YYD-2. If no packets are shown the sender has not sent any weather packets the latest 1 day(s).
| Time | Temp. | Humidity | Pressure | Rain* | Wind** | Luminosity | Snow |
|---|---|---|---|---|---|---|---|
| 1836274837 | 20.56° C | 54% | 1015.1 hPa | 0 mm | 1.79 m/s, 332° | 0 W/m² | - |
| 1836274716 | 21.11° C | 54% | 1015 hPa | 0 mm | 1.79 m/s, 69° | 0 W/m² | - |
| 1836274594 | 21.11° C | 54% | 1014.9 hPa | 0 mm | 1.79 m/s, 344° | 0 W/m² | - |
| 1836274567 | 20.56° C | 55% | 1015.2 hPa | 0 mm | 1.79 m/s, 159° | 0 W/m² | - |
| 1836274475 | 20.56° C | 54% | 1014.9 hPa | 0 mm | 1.79 m/s, 332° | 0 W/m² | - |
| 1836274447 | 20.56° C | 55% | 1015.1 hPa | 0 mm | 1.34 m/s, 350° | 0 W/m² | - |
| 1836274354 | 20.56° C | 54% | 1014.9 hPa | 0 mm | 1.79 m/s, 330° | 0 W/m² | - |
| 1836274327 | 20.56° C | 54% | 1015.1 hPa | 0 mm | 1.79 m/s, 330° | 0 W/m² | - |
| 1836274234 | 20.56° C | 54% | 1014.9 hPa | 0 mm | 1.79 m/s, 327° | 0 W/m² | - |
| 1836274207 | 20.56° C | 55% | 1015.1 hPa | 0 mm | 1.34 m/s, 333° | 0 W/m² | - |
| 1836274115 | 20.56° C | 55% | 1014.8 hPa | 0 mm | 1.79 m/s, 298° | 0 W/m² | - |
| 1836273994 | 20.56° C | 56% | 1014.9 hPa | 0 mm | 1.79 m/s, 12° | 0 W/m² | - |
| 1836273875 | 20.56° C | 57% | 1014.8 hPa | 0 mm | 1.79 m/s, 328° | 0 W/m² | - |
| 1778039285 | 15.56° C | 81% | 1008 hPa | 0 mm | 2.24 m/s, 208° | 0 W/m² | - |
| 1778039172 | 15.56° C | 81% | 1007.9 hPa | 0 mm | 2.24 m/s, 190° | 0 W/m² | - |
| 1778039046 | 15.56° C | 81% | 1007.9 hPa | 0 mm | 2.24 m/s, 163° | 0 W/m² | - |
| 1778038926 | 15.56° C | 81% | 1007.9 hPa | 0 mm | 1.79 m/s, 188° | 0 W/m² | - |
| 1778038810 | 15.56° C | 81% | 1007.8 hPa | 0 mm | 2.24 m/s, 220° | 0 W/m² | - |
| 1778038686 | 15.56° C | 81% | 1007.9 hPa | 0 mm | 2.24 m/s, 180° | 0 W/m² | - |
| 1778038566 | 15.56° C | 80% | 1007.8 hPa | 0 mm | 2.24 m/s, 145° | 0 W/m² | - |
| 1778038446 | 16.11° C | 80% | 1007.8 hPa | 0 mm | 2.24 m/s, 177° | 0 W/m² | - |
| 1778038326 | 16.11° C | 80% | 1007.8 hPa | 0 mm | 2.24 m/s, 194° | 0 W/m² | - |
| 1778038207 | 16.11° C | 80% | 1007.9 hPa | 0 mm | 2.24 m/s, 151° | 0 W/m² | - |
| 1778038085 | 16.11° C | 80% | 1007.9 hPa | 0 mm | 2.24 m/s, 174° | 0 W/m² | - |
| 1778037961 | 16.11° C | 80% | 1007.8 hPa | 0 mm | 2.24 m/s, 146° | 0 W/m² | - |
* Rain latest hour (hover to see other rain measurements)
** Current wind speed in m/s (hover to see current wind gust speed)